Location: Bremen
(53.0833°N, 8.8000°E)
Time: 12:49:18
(UTC+02:00)

ISS - Pass Details

Date: 28 April 2025
Orbit: 416 x 420 km, 51.6° (Epoch: 14 May)

Event Time Altitude Azimuth Distance (km) Brightness Sun altitude
Exits shadow 04:32:38 19° 231° (SW) 1,070 -2.4 -11.3°
Maximum altitude 04:34:46 48° 163° (SSE) 555 -3.3 -11.1°
Drops below altitude 10° 04:38:01 10° 88° (E) 1,498 -0.2 -10.7°
Sets 04:40:09 0° 82° (E) 2,364 1.1 -10.5°
